Messwerte Jask

Temperatur

Temperatur
°C
1594535400 11.00 11.00 33
1594539000 12.00 12.00 33
1594542600 13.00 13.00 34
1594546200 14.00 14.00 34
1594549800 15.00 15.00 34
1594553400 16.00 16.00 33
1594557000 17.00 17.00 33
1594560600 18.00 18.00 34
1594564200 19.00 19.00
1594567800 20.00 20.00 33
1594571400 21.00 21.00 33
1594575000 22.00 22.00 33
1594578600 23.00 23.00 32
1594582200 0.00 0.00
1594585800 1.00 1.00
1594589400 2.00 2.00 32
1594593000 3.00 3.00
1594596600 4.00 4.00
1594600200 5.00 5.00 32
1594603800 6.00 6.00
1594607400 7.00 7.00 32
1594611000 8.00 8.00 32
1594614600 9.00 9.00 32
1594618200 10.00 10.00 33

Aktuellste Messwerte

Wettercharakter
Wetter: Nebel
Temperatur
33 °C
Feuchtigkeit
85 %
Wind
30 km/hWindrichtung: Südost
Luftdruck
997 hPa
Messzeit: 13. Juli 2020, 11.30Datenquelle: METAR

Weitere Messstationen in der Nähe

Messstation Temperatur Entfernung
Fujairah 36 °C 156 km
Ras Al Khaimah 42 °C 184 km
Bandar Abbas 36 °C 225 km
Schardscha 45 °C 228 km
Maskat 33 °C 234 km
Dubai 44 °C 248 km
Al Ain 42 °C 266 km

Wind

Windrichtung Böen Mittelwind
° km/h km/h
1594535400 11.00 10.00 - 11.00 120° 25
1594539000 12.00 11.00 - 12.00 130° 30
1594542600 13.00 12.00 - 13.00 130° 25
1594546200 14.00 13.00 - 14.00 130° 20
1594549800 15.00 14.00 - 15.00 150° 20
1594553400 16.00 15.00 - 16.00 150° 20
1594557000 17.00 16.00 - 17.00 140° 20
1594560600 18.00 17.00 - 18.00 130° 15
1594564200 19.00 18.00 - 19.00
1594567800 20.00 19.00 - 20.00 170° 15
1594571400 21.00 20.00 - 21.00 170° 15
1594575000 22.00 21.00 - 22.00 130° 15
1594578600 23.00 22.00 - 23.00 130° 10
1594582200 0.00 23.00 - 0.00
1594585800 1.00 0.00 - 1.00
1594589400 2.00 1.00 - 2.00 110° 20
1594593000 3.00 2.00 - 3.00
1594596600 4.00 3.00 - 4.00
1594600200 5.00 4.00 - 5.00 110° 25
1594603800 6.00 5.00 - 6.00
1594607400 7.00 6.00 - 7.00 100° 25
1594611000 8.00 7.00 - 8.00 100° 25
1594614600 9.00 8.00 - 9.00 100° 25
1594618200 10.00 9.00 - 10.00 110° 30

Ihre Wetterstation

Fehlt Ihre Wetterstation auf unserem Portal?

Schreiben Sie an network@meteonews.ch

Klima

Wann ist es am wärmsten? Wann regnet es am wenigsten? Unsere Klimadaten geben Auskunft.